Terminal Aerodrome Forecast
Issued by NWS Quad Cities IA IL

Home | Current Version | Previous Version | Text Only | Print | Product List | Glossary On
Versions: 1 2 3 4 5 6 7 8 9 10 11 12 13 14 15 16 17 18 19 20
000
FTUS43 KDVN 020907 AAA
TAFMLI
TAF AMD
KMLI 020907Z 0209/0306 07009KT P6SM SCT100
     FM021300 08010KT P6SM SCT015
     FM021900 05008KT P6SM SCT120=

USA.gov is the U.S. government's official web portal to all federal, state and local government web resources and services.